Location: Unspecified
(0.0000°N, 0.0000°E)
Time: 16:56:19
(UTC+00:00)

PRISM - Pass Details

Date: 09 July 2022
Orbit: 554 x 578 km, 98.2° (Epoch: 10 August)

Event Time Altitude Azimuth Distance (km) Brightness Sun altitude
Rises 04:31:22 0° 15° (NNE) 2,724 ? -21.6°
Reaches altitude 10° 04:33:29 10° 18° (NNE) 1,835 ? -21.1°
Maximum altitude 04:37:26 72° 101° (E) 592 ? -20.2°
Enters shadow 04:39:42 25° 182° (S) 1,166 ? -19.7°
